This is the latest recevied weather packets stored in our database for station/object SP9MUF-14. If no packets are shown the sender has not sent any weather packets the latest 10 day(s).
| Time | Temp. | Humidity | Pressure | Rain* | Wind** | Luminosity | Snow |
|---|---|---|---|---|---|---|---|
| 1777305185 | 15.56° C | 22% | 1019.9 hPa | 0 mm | - | 102 W/m² | - |
| 1777304880 | 15° C | 21% | 1020 hPa | 0 mm | - | 112 W/m² | - |
| 1777304576 | 15° C | 21% | 1020 hPa | 0 mm | - | 120 W/m² | - |
| 1777304272 | 15° C | 21% | 1020.1 hPa | 0 mm | - | 132 W/m² | - |
| 1777303664 | 15.56° C | 22% | 1020.1 hPa | 0 mm | - | 156 W/m² | - |
| 1777303360 | 15° C | 21% | 1020.2 hPa | 0 mm | - | 166 W/m² | - |
| 1777303056 | 15.56° C | 22% | 1020.1 hPa | 0 mm | - | 178 W/m² | - |
| 1777302752 | 15.56° C | 21% | 1020.2 hPa | 0 mm | - | 190 W/m² | - |
| 1777301839 | 15.56° C | 21% | 1020.2 hPa | 0 mm | - | 228 W/m² | - |
| 1777301535 | 15.56° C | 20% | 1020.3 hPa | 0 mm | - | 242 W/m² | - |
| 1777301231 | 15° C | 21% | 1020.3 hPa | 0 mm | - | 257 W/m² | - |
| 1777300928 | 15° C | 21% | 1020.4 hPa | 0 mm | - | 269 W/m² | - |
| 1777300623 | 15° C | 21% | 1020.5 hPa | 0 mm | - | 285 W/m² | - |
| 1777300319 | 15° C | 20% | 1020.5 hPa | 0 mm | - | 298 W/m² | - |
| 1777299407 | 15.56° C | 21% | 1020.5 hPa | 0 mm | - | 339 W/m² | - |
| 1777298495 | 15.56° C | 21% | 1020.6 hPa | 0 mm | - | 380 W/m² | - |
| 1777298191 | 15.56° C | 21% | 1020.6 hPa | 0 mm | - | 392 W/m² | - |
| 1777297887 | 15° C | 21% | 1020.7 hPa | 0 mm | - | 408 W/m² | - |
| 1777297279 | 15° C | 22% | 1020.9 hPa | 0 mm | - | 430 W/m² | - |
| 1777296974 | 15° C | 21% | 1020.7 hPa | 0 mm | - | 443 W/m² | - |
| 1777296671 | 15.56° C | 21% | 1020.8 hPa | 0 mm | - | 460 W/m² | - |
| 1777296366 | 15° C | 22% | 1020.9 hPa | 0 mm | - | 471 W/m² | - |
| 1777296062 | 15° C | 21% | 1021 hPa | 0 mm | - | 485 W/m² | - |
| 1777295759 | 15° C | 22% | 1021.1 hPa | 0 mm | - | 495 W/m² | - |
| 1777295454 | 15° C | 21% | 1021.1 hPa | 0 mm | - | 506 W/m² | - |
* Rain latest hour (hover to see other rain measurements)
** Current wind speed in m/s (hover to see current wind gust speed)